Regional Weather Roundup
Issued by NWS Bismarck, ND

Home | Current Version | Previous Version | Text Only | Print | Product List | Glossary On
Versions: 1 2 3 4 5 6 7 8 9 10 11 12 13 14 15 16 17 18 19 20 21 22 23 24 25 26 27 28 29 30 31 32 33 34 35 36 37 38 39 40 41 42 43 44 45 46 47 48 49 50
000
ASUS43 KBIS 310610
RWRBIS

NWR BROADCAST TEXT
NATIONAL WEATHER SERVICE BISMARCK ND
100 AM CDT SUN AUG 31 2014

NOTE: "FAIR" INDICATES FEW OR NO CLOUDS BELOW 12,000 FEET WITH NO
SIGNIFICANT WEATHER AND/OR OBSTRUCTIONS TO VISIBILITY.


CITY           SKY/WX    TMP DP  RH WIND       PRES   REMARKS
WILLISTON      CLOUDY    60  58  92 N3        29.69S
MINOT          NOT AVBL
MINOT AFB      RAIN      61  61 100 CALM      29.67F FOG
BISMARCK       LGT RAIN  61  60  97 E9        29.71F
DICKINSON      CLOUDY    61  59  93 SW6       29.67F
GARRISON         N/A     62  60  93 SE9G20    29.65F
HETTINGER ARPT CLOUDY    60  58  92 SE5       29.70F
JAMESTOWN      FAIR      60  58  92 SE14      29.71F
BEACH            N/A     59  59 100 W6        29.74R
CARRINGTON     CLOUDY    59  59 100 SE13      29.72F
CROSBY         FOG       57  57 100 CALM      29.69F VSB 3/4
HARVEY         FAIR      59  59 100 S9        29.72R
HAZEN          CLOUDY    61  59  94 SE15      29.64F
LINTON         MOCLDY    63  63 100 SE18G26   29.67S
MANDAN         CLOUDY    61  59  94 SE10      29.70F
OAKES            N/A     59  59 100 E9        29.73F
RUGBY          FAIR      59  57  94 SE8       29.70F
STANLEY        LGT RAIN  61  61 100 SE6       29.67F
TIOGA          FAIR      57  57 100 NW3       29.70F FOG
WATFORD CITY   FAIR      59  59 100 NW7       29.66S
$$

CITY           SKY/WX    TMP DP  RH WIND       PRES   REMARKS
GRAND FORKS    MOCLDY    59  57  94 S7        29.77F
GRAND FORKS AF FAIR      59  59 100 S7        29.77F
DEVILS LAKE    FAIR      61  54  77 SE14      29.72F
FARGO          FAIR      61  58  90 SE9       29.80S
CANDO          MOCLDY    61  57  88 SE8       29.73F
CAVALIER       FAIR      59  57  94 S8        29.77S
GRAFTON        FAIR      55  55 100 S7        29.77S
GWINNER        CLEAR     61  61 100 SE12      29.76F
LANGDON        FAIR      57  55  94 S8        29.76F
ROLLA          CLOUDY    57  57 100 S9        29.75F
WALHALLA       FAIR      55  55 100 SE6       29.77R
$$

CITY           SKY/WX    TMP DP  RH WIND       PRES   REMARKS
ABERDEEN       MOCLDY    61  60  97 SE10      29.70F
MOBRIDGE       LGT RAIN  65  63  93 SE14G24   29.63F
BUFFALO          N/A     61  59  93 W14       29.68S
RAPID CITY     LGT RAIN  62  57  83 N9        29.79R
GLASGOW        PTCLDY    57  55  93 E10       29.70S
SIDNEY         CLOUDY    59  57  94 CALM      29.71F
WOLF POINT     CLOUDY    59  56  89 NE3       29.71F
GLENDIVE       CLOUDY    59  57  94 NW3       29.73F
MILES CITY     CLOUDY    61  57  87 S5        29.75R
BAKER          CLOUDY    59  57  93 W9        29.75S
$$

CITY           SKY/WX    TMP DP  RH WIND       PRES   REMARKS
BILLINGS       MOCLDY    58  47  66 SW9       29.80F
GREAT FALLS    MOCLDY    55  41  59 SW7       29.80S
REGINA         MOCLDY    57 N/A N/A E3        29.69R
ESTEVAN        FOG       59  59 100 NW5       29.69F VSB 1/2
$$



USA.gov is the U.S. government's official web portal to all federal, state and local government web resources and services.